TimeCST,TemperatureF,Dew PointF,Humidity,Sea Level PressureIn,VisibilityMPH,Wind Direction,Wind SpeedMPH,Gust SpeedMPH,PrecipitationIn,Events,Conditions,WindDirDegrees,DateUTC
12:15 AM,32.0,30.2,93,30.15,10.0,North,8.1,-,N/A,,Clear,350,2013-01-25 06:15:00
12:35 AM,32.0,30.2,93,30.16,10.0,NNW,6.9,-,N/A,,Mostly Cloudy,340,2013-01-25 06:35:00
12:55 AM,32.0,30.2,93,30.14,10.0,North,9.2,-,N/A,,Overcast,350,2013-01-25 06:55:00
1:15 AM,32.0,30.2,93,30.14,10.0,North,6.9,-,N/A,,Overcast,360,2013-01-25 07:15:00
1:35 AM,32.0,30.2,93,30.14,10.0,North,9.2,-,N/A,,Overcast,350,2013-01-25 07:35:00
1:55 AM,32.0,30.2,93,30.15,10.0,North,8.1,-,N/A,,Overcast,350,2013-01-25 07:55:00
2:15 AM,32.0,30.2,93,30.14,10.0,NNW,5.8,-,N/A,,Overcast,340,2013-01-25 08:15:00
2:35 AM,32.0,28.4,87,30.14,10.0,NNW,3.5,-,N/A,,Scattered Clouds,340,2013-01-25 08:35:00
2:55 AM,30.2,28.4,93,30.15,10.0,West,3.5,-,N/A,,Clear,280,2013-01-25 08:55:00
3:15 AM,30.2,28.4,93,30.16,10.0,NNW,4.6,-,N/A,,Clear,330,2013-01-25 09:15:00
3:35 AM,30.2,28.4,93,30.15,7.0,NNW,3.5,-,N/A,,Scattered Clouds,340,2013-01-25 09:35:00
3:55 AM,32.0,30.2,93,30.14,7.0,NNW,3.5,-,N/A,,Overcast,340,2013-01-25 09:55:00
4:15 AM,32.0,30.2,93,30.15,7.0,NNW,8.1,-,N/A,,Overcast,330,2013-01-25 10:15:00
4:35 AM,32.0,30.2,93,30.13,7.0,Calm,Calm,-,N/A,,Overcast,0,2013-01-25 10:35:00
4:55 AM,32.0,30.2,93,30.14,7.0,North,5.8,-,N/A,,Overcast,350,2013-01-25 10:55:00
5:15 AM,32.0,30.2,93,30.16,10.0,NNW,8.1,-,N/A,,Overcast,340,2013-01-25 11:15:00
5:35 AM,32.0,30.2,93,30.17,10.0,North,8.1,-,N/A,,Overcast,350,2013-01-25 11:35:00
6:15 AM,32.0,30.2,93,30.18,10.0,North,9.2,-,N/A,,Overcast,350,2013-01-25 12:15:00
6:35 AM,32.0,30.2,93,30.19,10.0,North,8.1,-,N/A,,Overcast,350,2013-01-25 12:35:00
6:55 AM,32.0,30.2,93,30.20,10.0,North,10.4,-,N/A,,Overcast,350,2013-01-25 12:55:00
7:35 AM,32.0,30.2,93,30.21,7.0,North,4.6,-,N/A,,Overcast,10,2013-01-25 13:35:00
7:55 AM,32.0,32.0,100,30.22,7.0,North,6.9,-,N/A,,Overcast,10,2013-01-25 13:55:00
8:15 AM,32.0,32.0,100,30.22,7.0,North,6.9,-,N/A,,Overcast,360,2013-01-25 14:15:00
8:35 AM,32.0,32.0,100,30.23,7.0,North,9.2,-,N/A,,Overcast,360,2013-01-25 14:35:00
8:55 AM,32.0,32.0,100,30.22,7.0,North,3.5,-,N/A,,Overcast,10,2013-01-25 14:55:00
9:15 AM,33.8,32.0,93,30.23,7.0,NNW,4.6,-,N/A,,Overcast,340,2013-01-25 15:15:00
9:35 AM,33.8,32.0,93,30.24,7.0,North,6.9,-,N/A,,Overcast,360,2013-01-25 15:35:00
9:55 AM,33.8,32.0,93,30.24,7.0,North,4.6,-,N/A,,Overcast,360,2013-01-25 15:55:00
10:15 AM,33.8,32.0,93,30.25,7.0,NNW,3.5,-,N/A,,Overcast,340,2013-01-25 16:15:00
10:35 AM,35.6,32.0,87,30.25,7.0,North,3.5,-,N/A,,Overcast,350,2013-01-25 16:35:00
10:55 AM,35.6,32.0,87,30.25,7.0,NNW,6.9,-,N/A,,Overcast,340,2013-01-25 16:55:00
11:15 AM,37.4,33.8,87,30.25,7.0,NNE,4.6,-,N/A,,Overcast,20,2013-01-25 17:15:00
11:35 AM,37.4,33.8,87,30.25,7.0,North,5.8,-,N/A,,Overcast,360,2013-01-25 17:35:00
11:55 AM,39.2,33.8,81,30.25,7.0,NNW,5.8,-,N/A,,Overcast,330,2013-01-25 17:55:00
12:15 PM,41.0,33.8,76,30.25,10.0,North,5.8,-,N/A,,Overcast,360,2013-01-25 18:15:00
12:35 PM,41.0,33.8,76,30.24,10.0,North,8.1,-,N/A,,Overcast,360,2013-01-25 18:35:00
1:15 PM,44.6,35.6,71,30.22,10.0,NNE,6.9,-,N/A,,Scattered Clouds,20,2013-01-25 19:15:00
1:35 PM,44.6,35.6,71,30.21,10.0,NNE,6.9,-,N/A,,Clear,30,2013-01-25 19:35:00
1:55 PM,46.4,35.6,66,30.20,10.0,NE,5.8,-,N/A,,Clear,40,2013-01-25 19:55:00
2:15 PM,46.4,35.6,66,30.20,10.0,NE,5.8,-,N/A,,Clear,40,2013-01-25 20:15:00
2:35 PM,50.0,35.6,58,30.20,10.0,NNE,4.6,-,N/A,,Clear,20,2013-01-25 20:35:00
2:55 PM,50.0,33.8,54,30.19,10.0,ENE,3.5,-,N/A,,Clear,60,2013-01-25 20:55:00
3:15 PM,50.0,35.6,58,30.19,7.0,East,4.6,-,N/A,,Clear,90,2013-01-25 21:15:00
3:35 PM,50.0,33.8,54,30.20,7.0,ENE,4.6,-,N/A,,Clear,70,2013-01-25 21:35:00
3:55 PM,51.8,33.8,50,30.20,10.0,ENE,3.5,-,N/A,,Clear,70,2013-01-25 21:55:00
4:15 PM,51.8,33.8,50,30.19,10.0,East,5.8,-,N/A,,Clear,80,2013-01-25 22:15:00
4:35 PM,51.8,33.8,50,30.20,10.0,ENE,3.5,-,N/A,,Clear,70,2013-01-25 22:35:00
4:55 PM,50.0,35.6,58,30.20,10.0,SE,5.8,-,N/A,,Clear,140,2013-01-25 22:55:00
5:15 PM,48.2,35.6,62,30.21,10.0,SSE,4.6,-,N/A,,Clear,150,2013-01-25 23:15:00
5:35 PM,48.2,35.6,62,30.20,10.0,SE,4.6,-,N/A,,Clear,130,2013-01-25 23:35:00
5:55 PM,46.4,35.6,66,30.20,10.0,SE,3.5,-,N/A,,Clear,130,2013-01-25 23:55:00
6:15 PM,44.6,35.6,71,30.21,10.0,SSE,3.5,-,N/A,,Clear,160,2013-01-26 00:15:00
6:35 PM,44.6,35.6,71,30.21,10.0,South,3.5,-,N/A,,Clear,170,2013-01-26 00:35:00
6:55 PM,44.6,35.6,71,30.22,10.0,SSW,3.5,-,N/A,,Clear,200,2013-01-26 00:55:00
7:15 PM,44.6,35.6,71,30.21,7.0,Calm,Calm,-,N/A,,Clear,0,2013-01-26 01:15:00
7:35 PM,42.8,35.6,76,30.20,10.0,Calm,Calm,-,N/A,,Clear,0,2013-01-26 01:35:00
7:55 PM,42.8,35.6,76,30.21,10.0,Calm,Calm,-,N/A,,Clear,0,2013-01-26 01:55:00
8:15 PM,42.8,35.6,76,30.22,10.0,SSE,3.5,-,N/A,,Clear,160,2013-01-26 02:15:00
8:35 PM,42.8,35.6,76,30.22,7.0,South,3.5,-,N/A,,Clear,170,2013-01-26 02:35:00
8:55 PM,42.8,35.6,76,30.22,10.0,Calm,Calm,-,N/A,,Clear,0,2013-01-26 02:55:00
9:15 PM,41.0,35.6,81,30.21,10.0,Calm,Calm,-,N/A,,Clear,0,2013-01-26 03:15:00
9:35 PM,41.0,35.6,81,30.22,10.0,NE,3.5,-,N/A,,Clear,40,2013-01-26 03:35:00
9:55 PM,41.0,35.6,81,30.22,10.0,Calm,Calm,-,N/A,,Clear,0,2013-01-26 03:55:00
10:15 PM,39.2,33.8,81,30.22,10.0,NNE,4.6,-,N/A,,Clear,20,2013-01-26 04:15:00
10:35 PM,39.2,33.8,81,30.23,10.0,Calm,Calm,-,N/A,,Clear,0,2013-01-26 04:35:00
10:55 PM,37.4,33.8,87,30.23,7.0,NNE,4.6,-,N/A,,Clear,20,2013-01-26 04:55:00
11:15 PM,39.2,33.8,81,30.22,10.0,NNE,4.6,-,N/A,,Clear,30,2013-01-26 05:15:00
11:35 PM,37.4,33.8,87,30.23,10.0,NNE,3.5,-,N/A,,Clear,30,2013-01-26 05:35:00
11:55 PM,37.4,33.8,87,30.24,10.0,North,3.5,-,N/A,,Clear,360,2013-01-26 05:55:00